Simultaneous Nadir Overpasses (SNOs) Predictions

Prediction of SNOs near US between AQUA and NPP Satellite Orbit:

Table of predicted SNOs near US for the next 10.0 days since TLE Epoch: 2/5/2022
Index Date (AQUA) Time (AQUA) AQUA Lat,Lon Date (NPP) Time (NPP) NPP Lat,Lon Distance(km) Time Diff (sec)
1 02/07/2022 09:24:55 20.42,-114.01 02/07/2022 09:16:41 20.54,-114.55 57.68 494
2 02/10/2022 06:31:01 45.44, -65.20 02/10/2022 06:30:53 45.78, -67.36 172.59 8
3 02/10/2022 08:08:39 49.89, -88.17 02/10/2022 08:11:03 50.39, -90.80 195.38 144
4 02/10/2022 09:47:32 49.89,-112.89 02/10/2022 09:52:30 50.55,-116.10 239.85 298
5 02/12/2022 19:06:44 49.95, -92.38 02/12/2022 19:01:20 49.62, -94.33 144.69 324
6 02/12/2022 20:45:37 49.95,-117.10 02/12/2022 20:42:48 49.51,-119.66 190.07 169
